Location: Leeds
(37.2390°N, 113.3580°W)
Time: 16:34:42
(UTC-06:00)

SL-08 RB Rocket - Visible Passes

Search period start: 30 April 2016 00:00
Search period end: 10 May 2016 00:00
Orbit: 648 x 685 km, 98.0° (Epoch: 30 April)

Date Brightness Start Highest point End Pass type
(mag) Time Alt. Az. Time Alt. Az. Time Alt. Az.
30 Apr 5.1 22:16:44 25° ENE 22:16:45 25° ENE 22:20:31 10° NNE visible
30 Apr 5.6 23:54:53 26° WNW 23:54:53 26° WNW 23:57:44 10° NW visible
01 May 4.2 22:48:49 50° NE 22:48:49 50° NE 22:52:52 10° N visible
02 May 6.4 00:26:57 12° WNW 00:26:57 12° WNW 00:27:59 10° WNW visible
02 May 5.9 21:42:44 11° ENE 21:43:38 11° ENE 21:45:08 10° NE visible
02 May 4.3 23:20:52 56° NW 23:20:52 56° NW 23:24:43 10° NNW visible
03 May 5.1 22:14:48 24° ENE 22:15:04 24° ENE 22:18:46 10° NNE visible
03 May 5.4 23:52:56 28° WNW 23:52:56 28° WNW 23:56:03 10° NW visible
04 May 4.1 22:46:52 50° ENE 22:46:52 50° ENE 22:51:08 10° N visible
05 May 6.3 00:25:00 13° WNW 00:25:00 13° WNW 00:26:24 10° WNW visible
05 May 5.9 21:40:48 10° ENE 21:41:57 11° ENE 21:43:09 10° NE visible
05 May 4.1 23:18:56 63° NW 23:18:56 63° NW 23:23:01 10° NNW visible
06 May 5.1 22:12:51 22° ENE 22:13:22 23° ENE 22:16:59 10° NNE visible
06 May 5.3 23:51:00 30° WNW 23:51:00 30° WNW 23:54:22 10° NNW visible
07 May 4.1 22:44:56 48° ENE 22:44:56 48° ENE 22:49:24 10° N visible
08 May 6.2 00:23:04 14° W 00:23:04 14° W 00:24:48 10° WNW visible
08 May 5.9 21:39:27 10° ENE 21:40:15 10° ENE 21:41:04 10° NE visible
08 May 3.9 23:17:00 71° WNW 23:17:00 71° WNW 23:21:17 10° NNW visible
09 May 5.2 22:10:55 21° E 22:11:40 22° ENE 22:15:12 10° NNE visible
09 May 5.1 23:49:04 32° W 23:49:04 32° W 23:52:41 10° NNW visible
